Waarnemingen

Advertentie
Mijn weer
London/Heathrow Intl, Groot Brittannië (3772): temperatuur & dauwpunt: 19.05.2020 14:00:00 - 25.05.2020 14:00:00 (BST)London/Heathrow Intl, Groot Brittannië (3772): windsnelheid & windstoten: 19.05.2020 14:00:00 - 25.05.2020 14:00:00 (BST)London/Heathrow Intl, Groot Brittannië (3772): windrichting: 19.05.2020 14:00:00 - 25.05.2020 14:00:00 (BST)London/Heathrow Intl, Groot Brittannië (3772): luchtdruk: 19.05.2020 14:00:00 - 25.05.2020 14:00:00 (BST)London/Heathrow Intl, Groot Brittannië (3772): zicht: 19.05.2020 14:00:00 - 25.05.2020 14:00:00 (BST)London/Heathrow Intl, Groot Brittannië (3772): Zonneschijnduur: 19.05.2020 14:00:00 - 25.05.2020 14:00:00 (BST)London/Heathrow Intl, Groot Brittannië (3772): neerslag: 19.05.2020 14:00:00 - 25.05.2020 14:00:00 (BST)
Datum & Tijd tt [°C] td [°C] ff [km/u] ff [kn] fx [km/u] fx [kn] dd ppp [hPa] vv [km] sd [min] rr [mm]
25.05.2020 14:00:00 23,4 6,0 13 7 - - W 1034,2 10 60 -
25.05.2020 13:00:00 23,0 7,6 8 4 - - WZW 1034,5 40 60 0,0
25.05.2020 12:00:00 23,4 8,7 11 6 - - WZW 1034,7 35 60 0,0
25.05.2020 11:00:00 21,3 9,2 8 4 - - ZZW 1034,9 10 60 0,0
25.05.2020 10:00:00 19,0 8,3 8 4 - - ZZW 1035,3 10 60 0,0
25.05.2020 09:00:00 17,5 7,7 4 2 - - - 1035,4 10 60 0,0
25.05.2020 08:00:00 14,4 6,3 4 2 - - - 1035,3 10 60 0,0
25.05.2020 07:00:00 12,4 8,7 5 3 - - NW 1035,1 25 30 0,0
25.05.2020 06:00:00 10,6 8,3 8 4 - - NW 1034,9 10 0 0,0
25.05.2020 05:00:00 10,7 8,0 5 3 - - WNW 1034,6 10 0 0,0
25.05.2020 04:00:00 11,5 8,6 8 4 - - W 1034,3 10 0 0,0
25.05.2020 03:00:00 11,9 8,3 8 4 - - W 1034,2 25 0 0,0
25.05.2020 02:00:00 12,9 8,4 4 2 - - W 1034,0 10 0 0,0
25.05.2020 01:00:00 14,2 8,4 8 4 - - WNW 1033,9 10 - 0,0
25.05.2020 00:00:00 15,9 8,4 13 7 - - WNW 1033,5 10 0 0,0
24.05.2020 23:00:00 17,0 9,2 13 7 - - WNW 1033,2 10 0 0,0
24.05.2020 22:00:00 18,5 8,5 13 7 - - W 1032,7 10 0 0,0
24.05.2020 21:00:00 19,0 7,0 4 2 - - - 1032,2 10 24 0,0
24.05.2020 20:00:00 20,9 6,9 9 5 - - WNW 1031,8 10 54 0,0
24.05.2020 19:00:00 20,6 6,9 11 6 - - NW 1031,4 10 12 0,0
24.05.2020 18:00:00 21,2 7,0 13 7 - - NW 1031,2 40 18 0,0
24.05.2020 17:00:00 21,2 6,7 18 10 - - WNW 1031,0 10 18 0,0
24.05.2020 16:00:00 21,2 6,7 15 8 - - NW 1030,8 45 36 0,0
24.05.2020 15:00:00 21,2 7,1 22 12 - - WNW 1030,9 10 54 0,0
24.05.2020 14:00:00 20,9 8,0 22 12 - - W 1030,9 10 42 0,0
24.05.2020 13:00:00 19,4 7,8 24 13 - - W 1030,7 10 36 0,0
24.05.2020 12:00:00 19,1 7,7 29 16 - - W 1030,5 30 54 0,0
24.05.2020 11:00:00 17,6 8,3 28 15 - - W 1030,6 10 42 0,0
24.05.2020 10:00:00 15,9 8,8 24 13 - - WNW 1030,3 10 6 0,0
24.05.2020 09:00:00 14,8 9,1 22 12 - - W 1030,0 10 0 0,0
24.05.2020 08:00:00 13,5 9,2 15 8 - - WZW 1029,5 10 0 0,0
24.05.2020 07:00:00 12,0 8,9 16 9 - - WZW 1028,9 10 0 0,0
24.05.2020 06:00:00 11,4 8,5 16 9 - - WZW 1028,3 10 0 0,0
24.05.2020 05:00:00 11,1 8,1 16 9 - - WZW 1028,3 10 0 0,0
24.05.2020 04:00:00 10,7 7,4 21 11 - - W 1028,2 19 0 0,0
24.05.2020 03:00:00 10,6 6,8 16 9 - - WZW 1027,9 19 0 0,0
24.05.2020 02:00:00 11,0 6,5 22 12 - - WZW 1027,9 20 0 0,0
24.05.2020 01:00:00 11,7 6,5 22 12 - - WZW 1028,0 10 - 0,0
24.05.2020 00:00:00 11,6 6,4 22 12 - - W 1027,6 10 0 0,0
23.05.2020 23:00:00 12,2 5,9 24 13 - - W 1027,2 24 0 0,0
23.05.2020 22:00:00 13,0 4,9 29 16 50 27 W 1026,5 10 0 0,0
23.05.2020 21:00:00 14,2 2,9 34 18 63 34 W 1025,8 10 0 0,0
23.05.2020 20:00:00 15,2 2,8 37 20 55 30 W 1025,2 40 42 0,0
23.05.2020 19:00:00 16,8 2,5 46 25 61 33 W 1024,5 10 54 0,0
23.05.2020 18:00:00 17,9 2,6 34 18 68 37 W 1024,1 10 48 0,0
23.05.2020 17:00:00 18,4 3,5 41 22 65 35 W 1023,5 10 48 0,0
23.05.2020 16:00:00 19,3 4,1 37 20 63 34 W 1022,8 10 48 0,0
23.05.2020 15:00:00 18,7 2,2 35 19 57 31 W 1022,1 10 54 0,2
23.05.2020 14:00:00 16,8 9,2 28 15 57 31 W 1021,9 10 42 1,4
23.05.2020 13:00:00 15,3 4,8 29 16 61 33 W 1022,0 10 24 0,0
23.05.2020 12:00:00 19,3 3,9 41 22 61 33 WZW 1021,5 40 30 0,0
23.05.2020 11:00:00 17,1 4,6 29 16 57 31 W 1021,6 10 36 0,0
23.05.2020 10:00:00 16,5 5,2 35 19 54 29 W 1021,5 10 42 0,0
23.05.2020 09:00:00 14,9 5,8 31 17 59 32 WZW 1021,0 10 54 0,0
23.05.2020 08:00:00 13,8 6,9 29 16 48 26 WZW 1020,9 10 60 0,0
23.05.2020 07:00:00 12,4 7,2 26 14 - - ZW 1020,9 10 30 0,0
23.05.2020 06:00:00 11,3 7,3 24 13 - - ZW 1020,6 10 0 0,0
23.05.2020 05:00:00 11,3 7,7 21 11 - - ZW 1020,0 10 0 0,0
23.05.2020 04:00:00 11,7 7,6 22 12 - - ZW 1020,0 10 0 0,0
23.05.2020 03:00:00 12,1 7,7 22 12 - - ZW 1019,8 10 0 0,0
23.05.2020 02:00:00 12,5 8,7 24 13 - - ZW 1019,9 9 0 0,0
23.05.2020 01:00:00 12,7 8,5 22 12 - - WZW 1019,7 9 - 0,0
23.05.2020 00:00:00 13,4 8,6 22 12 - - ZW 1019,5 9 0 0,0
22.05.2020 23:00:00 14,3 8,6 26 14 - - WZW 1019,1 10 0 0,0
22.05.2020 22:00:00 15,4 8,6 26 14 - - ZW 1018,6 10 0 0,0
22.05.2020 21:00:00 16,3 8,2 22 12 - - ZW 1018,0 10 0 0,0
22.05.2020 20:00:00 17,6 7,1 28 15 46 25 WZW 1017,2 10 36 0,0
22.05.2020 19:00:00 19,1 6,9 29 16 48 26 WZW 1016,6 10 36 0,0
22.05.2020 18:00:00 20,7 6,6 29 16 52 28 WZW 1016,3 10 42 0,0
22.05.2020 17:00:00 20,9 5,5 29 16 50 27 WZW 1016,2 10 36 0,0
22.05.2020 16:00:00 22,1 5,5 26 14 48 26 WZW 1015,9 10 48 0,0
22.05.2020 15:00:00 21,6 4,3 31 17 52 28 WZW 1015,7 10 54 0,0
22.05.2020 14:00:00 22,4 4,6 37 20 54 29 ZW 1015,6 29 60 0,0
22.05.2020 13:00:00 21,7 6,6 35 19 50 27 WZW 1015,4 10 60 0,0
22.05.2020 12:00:00 20,9 6,6 31 17 52 28 WZW 1015,2 10 54 0,0
22.05.2020 11:00:00 19,6 7,3 31 17 50 27 WZW 1014,7 10 18 0,0
22.05.2020 10:00:00 18,7 10,3 28 15 - - WZW 1014,1 10 0 0,0
22.05.2020 09:00:00 18,1 11,9 26 14 - - ZW 1013,7 10 0 0,0
22.05.2020 08:00:00 16,8 11,8 31 17 - - WZW 1013,4 10 0 0,0
22.05.2020 07:00:00 16,8 11,5 22 12 - - ZW 1012,8 10 0 0,0
22.05.2020 06:00:00 17,5 9,6 24 13 - - ZW 1012,8 10 0 0,0
22.05.2020 05:00:00 17,7 8,6 16 9 - - ZZW 1012,1 10 0 0,0
22.05.2020 04:00:00 18,6 9,1 15 8 - - Z 1012,2 45 0 0,0
22.05.2020 03:00:00 18,8 6,6 11 6 - - ZZW 1013,0 10 0 0,0
22.05.2020 02:00:00 18,3 5,5 15 8 - - ZZO 1013,5 10 0 0,0
22.05.2020 01:00:00 18,0 5,6 11 6 - - ZO 1014,5 10 - 0,0
22.05.2020 00:00:00 18,3 5,7 11 6 - - Z 1015,4 10 0 0,0
21.05.2020 23:00:00 18,8 6,9 13 7 - - Z 1016,4 10 0 0,0
21.05.2020 22:00:00 19,4 6,3 13 7 - - ZZW 1016,9 10 0 0,0
21.05.2020 21:00:00 21,4 5,9 15 8 - - Z 1016,9 55 0 0,0
21.05.2020 20:00:00 23,8 7,5 21 11 - - Z 1017,1 10 12 0,0
21.05.2020 19:00:00 25,5 6,8 9 5 - - ZW 1017,0 50 60 0,0
21.05.2020 18:00:00 26,2 7,5 4 2 - - - 1017,3 10 60 0,0
21.05.2020 17:00:00 26,3 7,2 4 2 - - - 1018,2 10 60 0,0
21.05.2020 16:00:00 27,3 8,8 8 4 - - - 1018,6 10 60 0,0
21.05.2020 15:00:00 26,1 8,2 11 6 - - W 1018,9 30 60 0,0
21.05.2020 14:00:00 25,1 7,3 11 6 - - W 1019,7 10 60 0,0
21.05.2020 13:00:00 25,1 8,3 13 7 - - W 1019,7 10 60 0,0
21.05.2020 12:00:00 24,5 10,7 13 7 - - WZW 1019,9 50 60 0,0
21.05.2020 11:00:00 22,3 12,0 8 4 - - - 1019,8 10 60 0,0
21.05.2020 10:00:00 20,8 10,9 13 7 - - W 1020,0 10 54 0,0
21.05.2020 09:00:00 19,8 10,8 8 4 - - W 1020,0 10 48 0,0
21.05.2020 08:00:00 17,4 9,5 5 3 - - - 1019,6 10 42 0,0
21.05.2020 07:00:00 14,0 8,2 2 1 - - N 1019,9 45 6 0,0
21.05.2020 06:00:00 13,3 8,6 4 2 - - - 1019,4 10 0 0,0
21.05.2020 05:00:00 13,4 8,2 4 2 - - N 1019,0 10 0 0,0
21.05.2020 04:00:00 13,9 8,0 5 3 - - NNW 1019,2 10 0 0,0
21.05.2020 03:00:00 14,4 8,9 5 3 - - ZZW 1019,7 10 0 0,0
21.05.2020 02:00:00 13,5 6,3 5 3 - - - 1020,0 10 0 0,0
21.05.2020 01:00:00 16,4 7,1 8 4 - - ZZW 1020,3 10 - 0,0
21.05.2020 00:00:00 17,5 6,6 11 6 - - Z 1020,3 55 0 0,0
20.05.2020 23:00:00 18,8 7,7 11 6 - - Z 1020,3 50 0 0,0
20.05.2020 22:00:00 20,0 7,7 9 5 - - Z 1020,3 10 0 0,0
20.05.2020 21:00:00 21,2 7,2 13 7 - - Z 1020,0 10 24 0,0
20.05.2020 20:00:00 23,1 5,8 13 7 - - Z 1019,8 50 60 0,0
20.05.2020 19:00:00 24,5 6,3 16 9 - - Z 1019,7 60 60 0,0
20.05.2020 18:00:00 25,7 6,0 21 11 - - ZW 1019,7 10 60 0,0
20.05.2020 17:00:00 26,8 7,0 21 11 - - ZZW 1020,0 10 60 0,0
20.05.2020 16:00:00 27,2 4,2 18 10 - - ZZW 1020,2 10 60 0,0
20.05.2020 15:00:00 27,2 6,1 18 10 - - Z 1020,5 10 60 0,0
20.05.2020 14:00:00 27,1 6,9 16 9 - - Z 1020,9 65 60 0,0
20.05.2020 13:00:00 26,6 6,6 16 9 - - ZZW 1021,3 10 60 0,0
20.05.2020 12:00:00 25,2 8,6 13 7 - - Z 1021,6 55 60 0,0
20.05.2020 11:00:00 24,4 11,3 13 7 - - ZZW 1021,9 10 60 0,0
20.05.2020 10:00:00 22,2 11,4 8 4 - - Z 1022,3 10 60 0,0
20.05.2020 09:00:00 18,6 11,3 5 3 - - ZW 1022,6 29 60 0,0
20.05.2020 08:00:00 15,9 11,1 4 2 - - - 1022,3 10 60 0,0
20.05.2020 07:00:00 14,5 10,9 8 4 - - W 1022,1 10 30 0,0
20.05.2020 06:00:00 13,4 10,2 4 2 - - WNW 1021,8 30 0 0,0
20.05.2020 05:00:00 13,5 10,3 5 3 - - W 1021,9 10 0 0,0
20.05.2020 04:00:00 13,7 9,9 8 4 - - WZW 1022,0 10 0 0,0
20.05.2020 03:00:00 14,3 9,4 8 4 - - W 1022,4 10 0 0,0
20.05.2020 02:00:00 15,0 9,6 8 4 - - WZW 1022,7 45 0 0,0
20.05.2020 01:00:00 16,2 10,0 5 3 - - - 1022,8 10 - 0,0
20.05.2020 00:00:00 17,5 10,0 8 4 - - WNW 1022,8 10 0 0,0
19.05.2020 23:00:00 19,4 9,8 13 7 - - WNW 1022,7 10 0 0,0
19.05.2020 22:00:00 20,4 10,4 13 7 - - W 1022,4 10 0 0,0
19.05.2020 21:00:00 21,6 10,9 8 4 - - NW 1022,1 10 18 0,0
19.05.2020 20:00:00 23,3 11,0 15 8 - - W 1021,9 10 60 0,0
19.05.2020 19:00:00 24,6 10,9 15 8 - - W 1021,9 10 60 0,0
19.05.2020 18:00:00 25,1 11,1 16 9 - - WZW 1021,8 10 60 0,0
19.05.2020 17:00:00 26,0 11,6 13 7 - - W 1021,9 10 60 0,0
19.05.2020 16:00:00 24,7 10,9 15 8 - - W 1022,3 10 60 0,0
19.05.2020 15:00:00 24,8 10,7 13 7 - - WZW 1022,6 10 60 0,0
19.05.2020 14:00:00 22,9 9,3 13 7 - - W 1022,7 10 60 0,0

tt = temperatuur
td = dauwpunt
ff = windsnelheid
fx = windstoten
dd = windrichting
ppp = luchtdruk
vv = zicht
sd = Zonneschijnduur
rr = neerslag

Weerstations in de omgeving